This is the latest recevied weather packets stored in our database for station/object EA6AMI-5. If no packets are shown the sender has not sent any weather packets the latest 10 day(s).
| Time | Temp. | Humidity | Pressure | Rain* | Wind** | Luminosity | Snow |
|---|---|---|---|---|---|---|---|
| 1787493603 | 32.22° C | 45% | 1016.5 hPa | 0 mm | - | 197 W/m² | - |
| 1787493243 | 32.22° C | 45% | 1016.3 hPa | 0 mm | - | 157 W/m² | - |
| 1787492703 | 32.78° C | 44% | 1016.4 hPa | 0 mm | - | 241 W/m² | - |
| 1787492164 | 32.78° C | 43% | 1016.3 hPa | 0 mm | - | 743 W/m² | - |
| 1787491623 | 32.22° C | 44% | 1016.1 hPa | 0 mm | - | 685 W/m² | - |
| 1787491084 | 32.22° C | 42% | 1016.3 hPa | 0 mm | - | 697 W/m² | - |
| 1787490544 | 32.78° C | 42% | 1015.9 hPa | 0 mm | - | 723 W/m² | - |
| 1787490004 | 32.22° C | 42% | 1016.3 hPa | 0 mm | - | 725 W/m² | - |
| 1787489644 | 32.78° C | 42% | 1016.3 hPa | 0 mm | - | 723 W/m² | - |
| 1787489104 | 32.22° C | 42% | 1016.5 hPa | 0 mm | - | 724 W/m² | - |
| 1787488563 | 32.22° C | 42% | 1016.5 hPa | 0 mm | - | 743 W/m² | - |
| 1787488024 | 31.67° C | 42% | 1016.6 hPa | 0 mm | - | 744 W/m² | - |
| 1787487483 | 32.22° C | 43% | 1016.6 hPa | 0 mm | - | 184 W/m² | - |
| 1787486943 | 32.78° C | 41% | 1016.6 hPa | 0 mm | - | 756 W/m² | - |
| 1787486403 | 31.67° C | 44% | 1016.8 hPa | 0 mm | - | 757 W/m² | - |
| 1787486043 | 31.67° C | 44% | 1016.7 hPa | 0 mm | - | 766 W/m² | - |
| 1787485503 | 31.67° C | 45% | 1016.8 hPa | 0 mm | - | 757 W/m² | - |
| 1787484963 | 31.67° C | 41% | 1016.8 hPa | 0 mm | - | 745 W/m² | - |
| 1787484424 | 31.67° C | 40% | 1016.9 hPa | 0 mm | - | 749 W/m² | - |
| 1787483884 | 31.67° C | 42% | 1016.9 hPa | 0 mm | - | 748 W/m² | - |
| 1787483343 | 31.11° C | 40% | 1016.8 hPa | 0 mm | - | 744 W/m² | - |
| 1787482803 | 30.56° C | 44% | 1017 hPa | 0 mm | - | 743 W/m² | - |
| 1787482443 | 31.11° C | 44% | 1017.1 hPa | 0 mm | - | 740 W/m² | - |
| 1787481903 | 31.11° C | 42% | 1017.2 hPa | 0 mm | - | 726 W/m² | - |
| 1787481364 | 30.56° C | 44% | 1017.3 hPa | 0 mm | - | 719 W/m² | - |
* Rain latest hour (hover to see other rain measurements)
** Current wind speed in m/s (hover to see current wind gust speed)